Simultaneous Nadir Overpasses (SNOs) Predictions

Prediction of SNOs between NOAA-19 and METOP-C Satellite Orbit:

Table of predicted SNOs for the next 14.0 days since TLE Epoch: 9/18/2020
Index Date (NOAA-19) Time (NOAA-19) Lat,Lon (NOAA-19) SZA (NOAA-19 ) Date (METOP-C) Time (METOP-C) Lat,Lon (METOP-C) SZA (METOP-C ) Distance(km) Time Diff (sec)
1 09/23/2020 23:15:38 -80.19, 35.04 98.32 09/23/2020 23:16:51 -80.19, 35.17 98.28 2.56 73
2 09/24/2020 00:06:43 80.18,-157.52 81.71 09/24/2020 00:07:31 80.19,-157.53 81.73 1.31 48
3 09/24/2020 00:57:38 -80.18, 9.70 98.29 09/24/2020 00:58:13 -80.18, 9.69 98.28 0.27 35
4 09/24/2020 01:48:43 80.17, 177.14 81.74 09/24/2020 01:48:53 80.18, 176.99 81.74 3.18 10
5 09/24/2020 02:39:38 -80.17, -15.63 98.26 09/24/2020 02:39:35 -80.17, -15.79 98.27 3.08 3
6 09/24/2020 03:30:44 80.18, 151.49 81.76 09/24/2020 03:30:15 80.16, 151.50 81.74 1.57 29
7 09/24/2020 04:21:38 -80.16, -40.96 98.22 09/24/2020 04:20:56 -80.18, -40.96 98.22 2.62 42
8 09/24/2020 05:12:44 80.17, 126.15 81.79 09/24/2020 05:11:37 80.15, 126.02 81.75 3.03 67
